Regional Weather Roundup
Issued by NWS Charleston, SC

Current Version | Previous Version | Graphics & Text | Print | Product List | Glossary On
Versions: 1 2 3 4 5 6 7 8 9 10 11 12 13 14 15 16 17 18 19 20 21 22 23 24 25 26 27 28 29 30 31 32 33 34 35 36 37 38 39 40 41 42 43 44 45 46 47 48 49 50
000
ASUS42 KCHS 231210
RWRCHS

REGIONAL WEATHER ROUNDUP
NATIONAL WEATHER SERVICE CHARLESTON SC
800 AM EDT TUE SEP 23 2014

NOTE: "FAIR" INDICATES FEW OR NO CLOUDS BELOW 12,000 FEET WITH NO
SIGNIFICANT WEATHER AND/OR OBSTRUCTIONS TO VISIBILITY.

NOT ALL STATIONS ARE QUALITY CONTROLLED BY THE NATIONAL
WEATHER SERVICE. USE DATA WITH CAUTION...ESPECIALLY
DEWPOINT OBSERVATIONS.

SCZ027-030-031-034>040-042>050-231300-
...SOUTH CAROLINA...

CITY           SKY/WX    TMP DP  RH WIND       PRES   REMARKS
N CHARLESTON   LGT RAIN  67  63  87 N8        30.13R
6HR MIN TEMP:  66; 6HR MAX TEMP:  69; 6HR PCP:  0.02;

WATERFRONT PRK NOT AVBL
FORT JOHNSON   NOT AVBL
MOUNT PLEASANT LGT RAIN  66  64  94 N6        30.11R
JOHNS ISLAND   LGT RAIN  66  66 100 CALM      30.13R
PINOPOLIS        N/A     70  64  83 N9        30.04R
MONCKS CORNER  LGT RAIN  68  66  94 N5        30.13R
SUMMERVILLE    CLOUDY    64  64 100 N8        30.15R
BEAUFORT MCAS  MOCLDY    67  64  90 N12       30.11R
6HR MIN TEMP:  67; 6HR MAX TEMP:  70; 6HR PCP:  0.03;

BEAUFORT ARPT  CLOUDY    66  66 100 N9        30.11R
HILTON HEAD IS MOCLDY    68  66  94 N12G21    30.11R
GEORGETOWN     NOT AVBL
WALTERBORO     PTSUNNY   64 N/A N/A N5        30.14R
ORANGEBURG     MOCLDY    63  60  90 NE8       30.15F
6HR MIN TEMP:  63; 6HR MAX TEMP:  64; 6HR PCP:  0.03;

BARNWELL       LGT RAIN  64  63  94 NE8       30.13F
AIKEN          FAIR      63  63 100 NE8       30.19R
MANNING        CLOUDY    64 N/A N/A N5        30.16R
KINGSTREE      NOT AVBL
COLUMBIA       CLOUDY    65  58  78 NE10      30.16F
6HR MIN TEMP:  64; 6HR MAX TEMP:  67; 6HR PCP:  0.01;

SUMTER         DRIZZLE   62  60  92 NW5       30.18R
6HR MIN TEMP:  62; 6HR MAX TEMP:  64; 6HR PCP:  0.07;

FLORENCE       LGT RAIN  64  60  87 N7        30.19R
6HR MIN TEMP:  64; 6HR MAX TEMP:  65; 6HR PCP:  0.04;

MYRTLE BEACH   CLOUDY    68  64  88 N8        30.13R
N MYRTLE BEACH LGT RAIN  67  64  90 NE9       30.13R
6HR MIN TEMP:  65; 6HR MAX TEMP:  68; 6HR PCP:  0.02;


$$

GAZ063-065-086>088-099>101-113>116-118-119-134-136>141-150-231300-
...GEORGIA...

CITY           SKY/WX    TMP DP  RH WIND       PRES   REMARKS
SAVANNAH ARPT  RAIN      68  63  84 NE9       30.11R
6HR MIN TEMP:  67; 6HR MAX TEMP:  69; 6HR PCP:  0.02;

HUNTER AAF     MOCLDY    66  64  94 VRB6      30.09R
6HR MIN TEMP:  67; 6HR MAX TEMP:  69; 6HR PCP:  0.06;

FORT STEWART   CLOUDY    67  62  84 NE6       30.09R
6HR MIN TEMP:  65; 6HR MAX TEMP:  67; 6HR PCP: TRACE;

STATESBORO     NOT AVBL
SYLVANIA       DRIZZLE   66  65  97 NE3       30.12S
CLAXTON        FAIR      64  64 100 CALM      30.13R
THOMSON        MOCLDY    65  64  96 NE3       30.20S
AUGUSTA-BUSH   MOCLDY    64  61  90 NE5       30.14R
6HR MIN TEMP:  63; 6HR MAX TEMP:  66;

AUGUSTA-DANIEL PTCLDY    65  60  84 NE8       30.15S
SWAINSBORO     CLOUDY    66  66 100 NE3       30.13S
VIDALIA        CLOUDY    64  64 100 NE9       30.12R
ALMA           MOCLDY    65  62  90 VRB5      30.10R
6HR MIN TEMP:  65; 6HR MAX TEMP:  69;

WAYCROSS       CLOUDY    70  65  83 NE6       30.09R
JESUP          CLOUDY    68  64  88 E6        30.10R
BRUNSWICK      CLOUDY    68  63  83 NE3       30.10R
SAINT SIMONS   RAIN      67  65  93 N13       30.07R
6HR MIN TEMP:  66; 6HR MAX TEMP:  74; 6HR PCP:  0.28;


$$

SCZ027-028-034-036>038-045-046-048>050-GAZ119-141-231300-
...LAKE AND SUPPLEMENTAL COASTAL OBSERVATIONS...

STATION/POSITION TIME  TEMP    WIND        PRES    WAVE   SWELL
                       AIR SEA DIR/SP/G            HT/PER HT/PER/DIR
                 (UTC) (F)     (DEG/KT/KT) (MB)    (FT/S) (FT/S/D)
UPR LAKE MARION  NOT AVBL
WINYAH BAY       1100   67      20/  6     1019.0S
LAKE MURRAY      1100   64      20/  4/  8 1021.0S
ACE BASIN NERRS  1100   65     350/  3     1019.0S
FORT PULASKI     1200   69      10/ 14/ 18 1019.1R
SAPELO ISLAND    1100   68      20/ 11     1018.0R

$$

ANZ835-935-AMZ111-154-330-350-352-354-374-450-454-472-231300-
...C-MAN AND BUOY OBSERVATIONS...

STATION/POSITION TIME  TEMP    WIND        PRES    WAVE   SWELL
                       AIR SEA DIR/SP/G            HT/PER HT/PER/DIR
                 (UTC) (F)     (DEG/KT/KT) (MB)    (FT/S) (FT/S/D)
FOLLY BEACH CMAN 1100   68     360/  8/ 12 1019.3R
BUOY 41004       1200   76 81   60/ 14/ 17 1017.9R   4/ 5   2/ 8
BUOY 41008       1200   74 82   50/ 14/ 17 1017.9R   4/ 5   2/110/ 8
5E ST. MARYS GA  1200      83                N/A     4/ 6
FRYING PAN BUOY  NOT AVBL
BUOY 41025       1200   75      20/ 19/ 23 1020.6R   6/ 7
CAPE LOOKOUT NC  1100   72      40/ 24/ 26 1020.7R
BUOY 41002       1108   79 81   20/  6/  8 1019.0R   3/ 7   3/110/ 7
BUOY 41010       1200   79 84  130/  8/ 10 1017.1R   2/ 7   2/ 90/ 7
BUOY 41012       NOT AVBL
ST AUGUSTINE FL  1200   74     210/  5/  5 1017.3R
CAPERS NEARSHORE 1100   72      40/ 14/ 17   N/A
FRIPP NEARSHORE  NOT AVBL


$$


USA.gov is the U.S. government's official web portal to all federal, state and local government web resources and services.